Time,TemperatureF,DewpointF,PressureIn,WindDirection,WindDirectionDegrees,WindSpeedMPH,WindSpeedGustMPH,Humidity,HourlyPrecipIn,Conditions,Clouds,dailyrainin,SoftwareType,DateUTC
2013-03-05 00:02:00,46.4,38.6,29.99,West,275,2.0,0.0,74,0.00,,,0.00,WeatherTracker,2013-03-05 08:02:00,
2013-03-05 00:07:00,46.2,38.4,29.99,WSW,244,2.0,0.0,74,0.00,,,0.00,WeatherTracker,2013-03-05 08:07:00,
2013-03-05 00:12:00,46.1,38.6,29.99,WSW,242,3.0,0.0,75,0.00,,,0.00,WeatherTracker,2013-03-05 08:12:00,
2013-03-05 00:18:00,46.0,38.5,29.99,WSW,253,1.0,0.0,75,0.00,,,0.00,WeatherTracker,2013-03-05 08:18:00,
2013-03-05 00:23:00,45.9,38.4,29.99,West,279,1.0,0.0,75,0.00,,,0.00,WeatherTracker,2013-03-05 08:23:00,
2013-03-05 00:28:00,46.0,38.2,29.99,WSW,255,2.0,0.0,74,0.00,,,0.00,WeatherTracker,2013-03-05 08:28:00,
2013-03-05 00:33:00,46.1,38.3,29.99,WSW,258,2.0,0.0,74,0.00,,,0.00,WeatherTracker,2013-03-05 08:33:00,
2013-03-05 00:38:00,46.1,38.3,29.99,SW,236,6.0,0.0,74,0.00,,,0.00,WeatherTracker,2013-03-05 08:38:00,
2013-03-05 00:43:00,46.0,38.2,29.98,WSW,256,4.0,0.0,74,0.00,,,0.00,WeatherTracker,2013-03-05 08:43:00,
2013-03-05 00:48:00,46.0,38.2,29.98,WSW,252,2.0,0.0,74,0.00,,,0.00,WeatherTracker,2013-03-05 08:48:00,
2013-03-05 00:53:00,46.1,38.3,29.99,WSW,248,1.0,0.0,74,0.00,,,0.00,WeatherTracker,2013-03-05 08:53:00,
2013-03-05 01:00:00,46.0,38.2,29.99,West,261,0.0,0.0,74,0.00,,,0.00,WeatherTracker,2013-03-05 09:00:00,
2013-03-05 01:05:00,46.0,38.2,29.99,West,261,2.0,0.0,74,0.00,,,0.00,WeatherTracker,2013-03-05 09:05:00,
2013-03-05 01:10:00,45.9,37.7,29.99,West,259,2.0,0.0,73,0.00,,,0.00,WeatherTracker,2013-03-05 09:10:00,
2013-03-05 01:15:00,45.9,37.7,29.99,WSW,258,1.0,0.0,73,0.00,,,0.00,WeatherTracker,2013-03-05 09:15:00,
2013-03-05 01:20:00,45.8,37.6,29.99,WSW,258,1.0,0.0,73,0.00,,,0.00,WeatherTracker,2013-03-05 09:20:00,
2013-03-05 01:25:00,45.6,37.5,29.99,WSW,258,0.0,0.0,73,0.00,,,0.00,WeatherTracker,2013-03-05 09:25:00,
2013-03-05 01:30:00,45.3,37.2,29.99,WSW,258,0.0,0.0,73,0.00,,,0.00,WeatherTracker,2013-03-05 09:30:00,
2013-03-05 01:35:00,45.1,37.3,29.99,WSW,258,0.0,0.0,74,0.00,,,0.00,WeatherTracker,2013-03-05 09:35:00,
2013-03-05 01:40:00,44.7,36.9,30.00,WSW,258,0.0,0.0,74,0.00,,,0.00,WeatherTracker,2013-03-05 09:40:00,
2013-03-05 01:45:00,44.5,36.7,30.00,WSW,258,0.0,0.0,74,0.00,,,0.00,WeatherTracker,2013-03-05 09:45:00,
2013-03-05 01:50:00,44.2,36.4,30.00,WSW,246,4.0,0.0,74,0.00,,,0.00,WeatherTracker,2013-03-05 09:50:00,
2013-03-05 01:55:00,44.3,36.5,30.00,WSW,239,2.0,0.0,74,0.00,,,0.00,WeatherTracker,2013-03-05 09:55:00,
2013-03-05 02:00:00,44.5,36.7,30.00,WSW,240,2.0,0.0,74,0.00,,,0.00,WeatherTracker,2013-03-05 10:00:00,
2013-03-05 02:05:00,44.6,36.5,30.00,WSW,243,3.0,0.0,73,0.00,,,0.00,WeatherTracker,2013-03-05 10:05:00,
2013-03-05 02:11:00,44.6,36.5,30.00,WNW,283,4.0,0.0,73,0.00,,,0.00,WeatherTracker,2013-03-05 10:11:00,
2013-03-05 02:16:00,44.7,36.2,30.00,WNW,286,3.0,0.0,72,0.00,,,0.00,WeatherTracker,2013-03-05 10:16:00,
2013-03-05 02:21:00,45.0,36.5,29.99,WNW,284,2.0,0.0,72,0.00,,,0.00,WeatherTracker,2013-03-05 10:21:00,
2013-03-05 02:26:00,45.2,37.1,30.00,West,279,4.0,0.0,73,0.00,,,0.00,WeatherTracker,2013-03-05 10:26:00,
2013-03-05 02:31:00,45.2,37.1,29.99,WNW,294,2.0,0.0,73,0.00,,,0.00,WeatherTracker,2013-03-05 10:31:00,
2013-03-05 02:36:00,45.2,37.1,29.99,WSW,256,1.0,0.0,73,0.00,,,0.00,WeatherTracker,2013-03-05 10:36:00,
2013-03-05 02:41:00,45.2,37.1,29.99,WNW,296,1.0,0.0,73,0.00,,,0.00,WeatherTracker,2013-03-05 10:41:00,
2013-03-05 02:46:00,45.1,37.0,29.99,West,260,2.0,0.0,73,0.00,,,0.00,WeatherTracker,2013-03-05 10:46:00,
2013-03-05 02:51:00,45.1,36.6,29.99,WNW,298,0.0,0.0,72,0.00,,,0.00,WeatherTracker,2013-03-05 10:51:00,
2013-03-05 02:56:00,45.1,36.6,29.99,WSW,240,1.0,0.0,72,0.00,,,0.00,WeatherTracker,2013-03-05 10:56:00,
2013-03-05 03:01:00,44.8,36.3,29.99,SW,232,3.0,0.0,72,0.00,,,0.00,WeatherTracker,2013-03-05 11:01:00,
2013-03-05 03:06:00,44.5,36.4,29.99,SW,219,2.0,0.0,73,0.00,,,0.00,WeatherTracker,2013-03-05 11:06:00,
2013-03-05 03:11:00,44.3,36.2,29.99,WSW,244,3.0,0.0,73,0.00,,,0.00,WeatherTracker,2013-03-05 11:11:00,
2013-03-05 03:16:00,44.3,35.9,29.98,WSW,253,2.0,0.0,72,0.00,,,0.00,WeatherTracker,2013-03-05 11:16:00,
2013-03-05 03:21:00,44.3,36.2,29.98,WSW,253,2.0,0.0,73,0.00,,,0.00,WeatherTracker,2013-03-05 11:21:00,
2013-03-05 03:26:00,44.2,36.4,29.98,WSW,238,4.0,0.0,74,0.00,,,0.00,WeatherTracker,2013-03-05 11:26:00,
2013-03-05 03:31:00,44.1,36.7,29.98,SW,236,2.0,0.0,75,0.00,,,0.00,WeatherTracker,2013-03-05 11:31:00,
2013-03-05 03:36:00,44.0,36.9,29.98,SW,225,3.0,0.0,76,0.00,,,0.00,WeatherTracker,2013-03-05 11:36:00,
2013-03-05 03:41:00,43.9,37.5,29.98,SW,228,4.0,0.0,78,0.00,,,0.00,WeatherTracker,2013-03-05 11:41:00,
2013-03-05 03:46:00,43.7,37.3,29.98,WSW,250,5.0,0.0,78,0.00,,,0.00,WeatherTracker,2013-03-05 11:46:00,
2013-03-05 03:51:00,43.6,37.8,29.98,SW,215,6.0,0.0,80,0.00,,,0.00,WeatherTracker,2013-03-05 11:51:00,
2013-03-05 03:56:00,43.5,37.7,29.98,SW,216,5.0,0.0,80,0.00,,,0.00,WeatherTracker,2013-03-05 11:56:00,
2013-03-05 04:02:00,43.4,37.6,29.98,SW,236,4.0,0.0,80,0.00,,,0.00,WeatherTracker,2013-03-05 12:02:00,
2013-03-05 04:07:00,43.4,38.0,29.99,WSW,254,3.0,0.0,81,0.00,,,0.00,WeatherTracker,2013-03-05 12:07:00,
2013-03-05 04:12:00,43.4,38.3,29.99,SW,234,4.0,0.0,82,0.00,,,0.00,WeatherTracker,2013-03-05 12:12:00,
2013-03-05 04:17:00,43.4,38.3,30.00,SW,225,3.0,0.0,82,0.00,,,0.00,WeatherTracker,2013-03-05 12:17:00,
2013-03-05 04:22:00,43.4,38.3,30.00,WSW,240,7.0,0.0,82,0.00,,,0.00,WeatherTracker,2013-03-05 12:22:00,
2013-03-05 04:27:00,43.3,38.2,30.00,West,260,2.0,0.0,82,0.00,,,0.00,WeatherTracker,2013-03-05 12:27:00,
2013-03-05 04:32:00,43.2,38.1,30.00,WSW,239,3.0,0.0,82,0.00,,,0.00,WeatherTracker,2013-03-05 12:32:00,
2013-03-05 04:37:00,43.2,38.1,30.00,West,266,2.0,0.0,82,0.00,,,0.00,WeatherTracker,2013-03-05 12:37:00,
2013-03-05 04:42:00,43.0,38.2,30.01,WSW,257,1.0,0.0,83,0.00,,,0.00,WeatherTracker,2013-03-05 12:42:00,
2013-03-05 04:47:00,42.9,38.1,30.00,SSW,212,2.0,0.0,83,0.00,,,0.00,WeatherTracker,2013-03-05 12:47:00,
2013-03-05 04:52:00,42.7,37.9,30.00,SSW,208,1.0,0.0,83,0.00,,,0.00,WeatherTracker,2013-03-05 12:52:00,
2013-03-05 04:57:00,42.6,37.5,30.00,WSW,252,1.0,0.0,82,0.00,,,0.00,WeatherTracker,2013-03-05 12:57:00,
2013-03-05 05:02:00,42.5,37.7,30.00,WSW,242,2.0,0.0,83,0.00,,,0.00,WeatherTracker,2013-03-05 13:02:00,
2013-03-05 05:07:00,42.5,37.7,30.00,WSW,256,1.0,0.0,83,0.00,,,0.00,WeatherTracker,2013-03-05 13:07:00,
2013-03-05 05:12:00,42.4,37.6,30.00,WSW,239,0.0,0.0,83,0.00,,,0.00,WeatherTracker,2013-03-05 13:12:00,
2013-03-05 05:17:00,42.3,37.5,30.00,WNW,290,0.0,0.0,83,0.00,,,0.00,WeatherTracker,2013-03-05 13:17:00,
2013-03-05 05:22:00,42.2,37.7,30.00,West,259,5.0,0.0,84,0.00,,,0.00,WeatherTracker,2013-03-05 13:22:00,
2013-03-05 05:27:00,42.2,37.7,30.00,SW,233,3.0,0.0,84,0.00,,,0.00,WeatherTracker,2013-03-05 13:27:00,
2013-03-05 05:32:00,42.1,37.6,30.00,West,269,2.0,0.0,84,0.00,,,0.00,WeatherTracker,2013-03-05 13:32:00,
2013-03-05 05:37:00,42.1,37.6,30.00,WSW,257,0.0,0.0,84,0.00,,,0.00,WeatherTracker,2013-03-05 13:37:00,
2013-03-05 05:42:00,42.0,37.5,30.00,SW,222,3.0,0.0,84,0.00,,,0.00,WeatherTracker,2013-03-05 13:42:00,
2013-03-05 05:47:00,41.9,37.4,30.00,WSW,242,2.0,0.0,84,0.00,,,0.00,WeatherTracker,2013-03-05 13:47:00,
2013-03-05 05:53:00,41.9,37.4,30.00,WSW,244,2.0,0.0,84,0.00,,,0.00,WeatherTracker,2013-03-05 13:53:00,
2013-03-05 05:58:00,41.8,37.6,30.00,WSW,238,3.0,0.0,85,0.00,,,0.00,WeatherTracker,2013-03-05 13:58:00,
2013-03-05 06:03:00,41.8,37.6,30.00,WSW,246,4.0,0.0,85,0.00,,,0.00,WeatherTracker,2013-03-05 14:03:00,
2013-03-05 06:08:00,41.8,37.6,30.00,WSW,243,3.0,0.0,85,0.00,,,0.00,WeatherTracker,2013-03-05 14:08:00,
2013-03-05 06:13:00,41.8,37.6,30.00,WSW,240,4.0,0.0,85,0.00,,,0.00,WeatherTracker,2013-03-05 14:13:00,
2013-03-05 06:18:00,41.7,37.5,30.00,WSW,242,3.0,0.0,85,0.00,,,0.00,WeatherTracker,2013-03-05 14:18:00,
2013-03-05 06:23:00,41.6,37.4,30.00,WSW,246,2.0,0.0,85,0.00,,,0.00,WeatherTracker,2013-03-05 14:23:00,
2013-03-05 06:28:00,41.6,37.4,30.00,WSW,246,1.0,0.0,85,0.00,,,0.00,WeatherTracker,2013-03-05 14:28:00,
2013-03-05 06:33:00,41.7,37.5,30.00,WSW,240,1.0,0.0,85,0.00,,,0.00,WeatherTracker,2013-03-05 14:33:00,
2013-03-05 06:38:00,41.9,37.7,30.00,WSW,249,2.0,0.0,85,0.00,,,0.00,WeatherTracker,2013-03-05 14:38:00,
2013-03-05 06:43:00,42.0,37.8,30.00,WSW,248,2.0,0.0,85,0.00,,,0.00,WeatherTracker,2013-03-05 14:43:00,
2013-03-05 06:48:00,42.0,37.8,30.00,SW,234,3.0,0.0,85,0.00,,,0.00,WeatherTracker,2013-03-05 14:48:00,
2013-03-05 06:53:00,42.0,37.8,30.00,WSW,251,4.0,0.0,85,0.00,,,0.00,WeatherTracker,2013-03-05 14:53:00,
2013-03-05 06:58:00,42.1,37.9,30.00,West,269,3.0,0.0,85,0.00,,,0.00,WeatherTracker,2013-03-05 14:58:00,
2013-03-05 07:03:00,42.3,38.1,30.00,WSW,247,2.0,0.0,85,0.00,,,0.00,WeatherTracker,2013-03-05 15:03:00,
2013-03-05 07:08:00,42.6,38.1,30.00,West,263,5.0,0.0,84,0.00,,,0.00,WeatherTracker,2013-03-05 15:08:00,
2013-03-05 07:13:00,42.8,38.3,30.00,West,280,5.0,0.0,84,0.00,,,0.00,WeatherTracker,2013-03-05 15:13:00,
2013-03-05 07:18:00,43.0,38.5,30.00,West,276,0.0,0.0,84,0.00,,,0.00,WeatherTracker,2013-03-05 15:18:00,
2013-03-05 07:23:00,43.1,38.3,30.00,West,271,0.0,0.0,83,0.00,,,0.00,WeatherTracker,2013-03-05 15:23:00,
2013-03-05 07:29:00,43.3,38.5,30.00,West,275,0.0,0.0,83,0.00,,,0.00,WeatherTracker,2013-03-05 15:29:00,
2013-03-05 07:34:00,43.5,38.7,30.00,West,275,0.0,0.0,83,0.00,,,0.00,WeatherTracker,2013-03-05 15:34:00,
2013-03-05 07:39:00,43.7,38.6,30.00,West,274,0.0,0.0,82,0.00,,,0.00,WeatherTracker,2013-03-05 15:39:00,
2013-03-05 07:44:00,44.0,38.9,30.00,West,278,0.0,0.0,82,0.00,,,0.00,WeatherTracker,2013-03-05 15:44:00,
2013-03-05 07:49:00,44.3,39.2,30.00,WSW,244,3.0,0.0,82,0.00,,,0.00,WeatherTracker,2013-03-05 15:49:00,
2013-03-05 07:54:00,44.7,39.5,29.99,WSW,242,1.0,0.0,82,0.00,,,0.00,WeatherTracker,2013-03-05 15:54:00,
2013-03-05 07:59:00,45.2,39.7,29.99,WSW,253,1.0,0.0,81,0.00,,,0.00,WeatherTracker,2013-03-05 15:59:00,
2013-03-05 08:04:00,45.9,40.4,29.99,WNW,285,2.0,0.0,81,0.00,,,0.00,WeatherTracker,2013-03-05 16:04:00,
2013-03-05 08:09:00,46.6,40.8,29.99,WSW,248,5.0,0.0,80,0.00,,,0.00,WeatherTracker,2013-03-05 16:09:00,
2013-03-05 08:14:00,47.2,41.0,30.00,WSW,248,7.0,0.0,79,0.00,,,0.00,WeatherTracker,2013-03-05 16:14:00,
2013-03-05 08:19:00,47.8,41.3,30.00,West,277,2.0,0.0,78,0.00,,,0.00,WeatherTracker,2013-03-05 16:19:00,
2013-03-05 08:24:00,48.4,41.9,30.00,WNW,302,4.0,0.0,78,0.00,,,0.00,WeatherTracker,2013-03-05 16:24:00,
2013-03-05 08:29:00,48.9,41.7,30.00,West,264,4.0,0.0,76,0.00,,,0.00,WeatherTracker,2013-03-05 16:29:00,
2013-03-05 08:34:00,49.3,42.1,30.00,SW,227,3.0,0.0,76,0.00,,,0.00,WeatherTracker,2013-03-05 16:34:00,
2013-03-05 08:39:00,49.7,42.1,30.00,WSW,250,3.0,0.0,75,0.00,,,0.00,WeatherTracker,2013-03-05 16:39:00,
2013-03-05 08:44:00,50.0,42.0,30.00,WNW,298,4.0,0.0,74,0.00,,,0.00,WeatherTracker,2013-03-05 16:44:00,
2013-03-05 08:49:00,50.1,42.5,30.00,WSW,242,5.0,0.0,75,0.00,,,0.00,WeatherTracker,2013-03-05 16:49:00,
2013-03-05 08:54:00,50.4,42.4,30.00,West,280,5.0,0.0,74,0.00,,,0.00,WeatherTracker,2013-03-05 16:54:00,
2013-03-05 08:59:00,50.7,42.7,30.00,WSW,254,8.0,0.0,74,0.00,,,0.00,WeatherTracker,2013-03-05 16:59:00,
2013-03-05 09:04:00,51.2,42.8,30.00,WSW,246,10.0,0.0,73,0.00,,,0.00,WeatherTracker,2013-03-05 17:04:00,
2013-03-05 09:09:00,51.7,43.0,30.00,West,275,4.0,0.0,72,0.00,,,0.00,WeatherTracker,2013-03-05 17:09:00,
2013-03-05 09:15:00,51.9,42.8,30.00,West,263,3.0,0.0,71,0.00,,,0.00,WeatherTracker,2013-03-05 17:15:00,
2013-03-05 09:20:00,52.3,43.2,30.00,West,269,5.0,0.0,71,0.00,,,0.00,WeatherTracker,2013-03-05 17:20:00,
2013-03-05 09:25:00,52.4,42.9,30.00,West,276,2.0,0.0,70,0.00,,,0.00,WeatherTracker,2013-03-05 17:25:00,
2013-03-05 09:30:00,52.5,42.6,29.99,SW,234,4.0,0.0,69,0.00,,,0.00,WeatherTracker,2013-03-05 17:30:00,
2013-03-05 09:35:00,52.6,42.7,29.99,WSW,252,5.0,0.0,69,0.00,,,0.00,WeatherTracker,2013-03-05 17:35:00,
2013-03-05 09:40:00,52.6,42.3,29.99,SW,229,5.0,0.0,68,0.00,,,0.00,WeatherTracker,2013-03-05 17:40:00,
2013-03-05 09:45:00,52.6,42.7,29.99,West,273,3.0,0.0,69,0.00,,,0.00,WeatherTracker,2013-03-05 17:45:00,
2013-03-05 09:50:00,52.6,42.3,29.99,SSW,200,4.0,0.0,68,0.00,,,0.00,WeatherTracker,2013-03-05 17:50:00,
2013-03-05 09:55:00,52.4,42.5,29.99,WSW,242,5.0,0.0,69,0.00,,,0.00,WeatherTracker,2013-03-05 17:55:00,
2013-03-05 10:00:00,52.3,42.1,29.99,WSW,252,1.0,0.0,68,0.00,,,0.00,WeatherTracker,2013-03-05 18:00:00,
2013-03-05 10:05:00,52.1,42.2,29.99,WSW,238,0.0,0.0,69,0.00,,,0.00,WeatherTracker,2013-03-05 18:05:00,
2013-03-05 10:10:00,52.1,42.6,29.99,West,270,2.0,0.0,70,0.00,,,0.00,WeatherTracker,2013-03-05 18:10:00,
2013-03-05 10:15:00,51.9,42.1,29.99,West,279,7.0,0.0,69,0.00,,,0.00,WeatherTracker,2013-03-05 18:15:00,
2013-03-05 10:20:00,51.9,42.4,29.99,West,267,9.0,0.0,70,0.00,,,0.00,WeatherTracker,2013-03-05 18:20:00,
2013-03-05 10:25:00,52.0,42.1,29.99,SW,214,3.0,0.0,69,0.00,,,0.00,WeatherTracker,2013-03-05 18:25:00,
2013-03-05 10:30:00,52.3,42.4,29.98,WSW,243,2.0,0.0,69,0.00,,,0.00,WeatherTracker,2013-03-05 18:30:00,
2013-03-05 10:35:00,52.6,42.7,29.98,WSW,238,12.0,0.0,69,0.00,,,0.00,WeatherTracker,2013-03-05 18:35:00,
2013-03-05 10:40:00,53.2,43.3,29.98,SW,231,4.0,0.0,69,0.00,,,0.00,WeatherTracker,2013-03-05 18:40:00,
2013-03-05 10:45:00,53.7,43.0,29.98,WSW,246,13.0,0.0,67,0.00,,,0.00,WeatherTracker,2013-03-05 18:45:00,
2013-03-05 10:51:00,54.0,42.9,29.98,SW,223,8.0,0.0,66,0.00,,,0.00,WeatherTracker,2013-03-05 18:51:00,
2013-03-05 10:56:00,54.1,43.0,29.98,WSW,246,5.0,0.0,66,0.00,,,0.00,WeatherTracker,2013-03-05 18:56:00,
2013-03-05 11:01:00,54.5,42.6,29.98,WSW,252,3.0,0.0,64,0.00,,,0.00,WeatherTracker,2013-03-05 19:01:00,
2013-03-05 11:06:00,54.8,42.9,29.98,SW,232,10.0,0.0,64,0.00,,,0.00,WeatherTracker,2013-03-05 19:06:00,
2013-03-05 11:11:00,55.0,43.0,29.97,WSW,246,10.0,0.0,64,0.00,,,0.00,WeatherTracker,2013-03-05 19:11:00,
2013-03-05 11:16:00,54.8,42.9,29.97,West,281,5.0,0.0,64,0.00,,,0.00,WeatherTracker,2013-03-05 19:16:00,
2013-03-05 11:21:00,55.0,43.5,29.97,WSW,255,5.0,0.0,65,0.00,,,0.00,WeatherTracker,2013-03-05 19:21:00,
2013-03-05 11:26:00,55.7,43.3,29.98,SW,229,6.0,0.0,63,0.00,,,0.00,WeatherTracker,2013-03-05 19:26:00,
2013-03-05 11:31:00,56.2,42.9,29.98,SSW,207,4.0,0.0,61,0.00,,,0.00,WeatherTracker,2013-03-05 19:31:00,
2013-03-05 11:36:00,56.4,42.7,29.97,West,276,8.0,0.0,60,0.00,,,0.00,WeatherTracker,2013-03-05 19:36:00,
2013-03-05 11:41:00,56.2,42.1,29.97,SSW,210,6.0,0.0,59,0.00,,,0.00,WeatherTracker,2013-03-05 19:41:00,
2013-03-05 11:46:00,56.2,42.5,29.97,WSW,242,6.0,0.0,60,0.00,,,0.00,WeatherTracker,2013-03-05 19:46:00,
2013-03-05 11:51:00,56.2,42.1,29.97,SW,218,7.0,0.0,59,0.00,,,0.00,WeatherTracker,2013-03-05 19:51:00,
2013-03-05 11:56:00,56.3,42.6,29.97,WSW,256,5.0,0.0,60,0.00,,,0.00,WeatherTracker,2013-03-05 19:56:00,
2013-03-05 12:01:00,56.9,43.2,29.97,WSW,252,6.0,0.0,60,0.00,,,0.00,WeatherTracker,2013-03-05 20:01:00,
2013-03-05 12:06:00,57.2,42.6,29.97,NW,308,15.0,0.0,58,0.00,,,0.00,WeatherTracker,2013-03-05 20:06:00,
2013-03-05 12:11:00,57.2,43.0,29.97,SW,230,5.0,0.0,59,0.00,,,0.00,WeatherTracker,2013-03-05 20:11:00,
2013-03-05 12:16:00,56.9,42.7,29.97,WSW,245,8.0,0.0,59,0.00,,,0.00,WeatherTracker,2013-03-05 20:16:00,
2013-03-05 12:21:00,56.3,43.0,29.96,WSW,252,5.0,0.0,61,0.00,,,0.00,WeatherTracker,2013-03-05 20:21:00,
2013-03-05 12:26:00,55.9,43.5,29.96,WSW,246,10.0,0.0,63,0.00,,,0.00,WeatherTracker,2013-03-05 20:26:00,
2013-03-05 12:32:00,56.0,43.2,29.96,South,176,8.0,0.0,62,0.00,,,0.00,WeatherTracker,2013-03-05 20:32:00,
2013-03-05 12:37:00,56.5,43.6,29.95,SW,231,7.0,0.0,62,0.00,,,0.00,WeatherTracker,2013-03-05 20:37:00,
2013-03-05 12:42:00,56.8,43.5,29.95,WSW,256,5.0,0.0,61,0.00,,,0.00,WeatherTracker,2013-03-05 20:42:00,
2013-03-05 12:47:00,56.9,43.6,29.95,WSW,244,5.0,0.0,61,0.00,,,0.00,WeatherTracker,2013-03-05 20:47:00,
2013-03-05 12:52:00,57.2,43.9,29.95,SW,234,14.0,0.0,61,0.00,,,0.00,WeatherTracker,2013-03-05 20:52:00,
2013-03-05 12:57:00,57.2,43.0,29.95,SW,217,9.0,0.0,59,0.00,,,0.00,WeatherTracker,2013-03-05 20:57:00,
2013-03-05 13:02:00,57.2,43.9,29.94,WSW,244,7.0,0.0,61,0.00,,,0.00,WeatherTracker,2013-03-05 21:02:00,
2013-03-05 13:07:00,57.5,43.7,29.94,SSW,210,5.0,0.0,60,0.00,,,0.00,WeatherTracker,2013-03-05 21:07:00,
2013-03-05 13:12:00,57.7,43.5,29.93,West,269,8.0,0.0,59,0.00,,,0.00,WeatherTracker,2013-03-05 21:12:00,
2013-03-05 13:17:00,57.8,43.6,29.94,West,279,5.0,0.0,59,0.00,,,0.00,WeatherTracker,2013-03-05 21:17:00,
2013-03-05 13:22:00,58.0,43.8,29.93,WSW,245,14.0,0.0,59,0.00,,,0.00,WeatherTracker,2013-03-05 21:22:00,
2013-03-05 13:27:00,58.2,43.5,29.93,WSW,255,8.0,0.0,58,0.00,,,0.00,WeatherTracker,2013-03-05 21:27:00,
2013-03-05 13:32:00,58.3,43.6,29.93,WSW,244,11.0,0.0,58,0.00,,,0.00,WeatherTracker,2013-03-05 21:32:00,
2013-03-05 13:37:00,58.4,43.7,29.93,WSW,257,7.0,0.0,58,0.00,,,0.00,WeatherTracker,2013-03-05 21:37:00,
2013-03-05 13:42:00,58.8,43.6,29.93,SW,236,7.0,0.0,57,0.00,,,0.00,WeatherTracker,2013-03-05 21:42:00,
2013-03-05 13:47:00,58.8,44.1,29.93,SW,227,13.0,0.0,58,0.00,,,0.00,WeatherTracker,2013-03-05 21:47:00,
2013-03-05 13:53:00,58.8,43.6,29.92,WSW,246,7.0,0.0,57,0.00,,,0.00,WeatherTracker,2013-03-05 21:53:00,
2013-03-05 13:58:00,58.7,43.5,29.92,WSW,249,6.0,0.0,57,0.00,,,0.00,WeatherTracker,2013-03-05 21:58:00,
2013-03-05 14:03:00,58.5,43.3,29.92,WSW,240,14.0,0.0,57,0.00,,,0.00,WeatherTracker,2013-03-05 22:03:00,
2013-03-05 14:08:00,58.5,42.9,29.92,NW,324,4.0,0.0,56,0.00,,,0.00,WeatherTracker,2013-03-05 22:08:00,
2013-03-05 14:13:00,58.4,43.2,29.91,WSW,249,10.0,0.0,57,0.00,,,0.00,WeatherTracker,2013-03-05 22:13:00,
2013-03-05 14:18:00,58.5,43.3,29.91,WNW,284,5.0,0.0,57,0.00,,,0.00,WeatherTracker,2013-03-05 22:18:00,
2013-03-05 14:23:00,58.6,43.4,29.91,WNW,290,4.0,0.0,57,0.00,,,0.00,WeatherTracker,2013-03-05 22:23:00,
2013-03-05 14:28:00,58.6,43.4,29.91,West,265,3.0,0.0,57,0.00,,,0.00,WeatherTracker,2013-03-05 22:28:00,
2013-03-05 14:33:00,58.7,43.5,29.91,West,269,4.0,0.0,57,0.00,,,0.00,WeatherTracker,2013-03-05 22:33:00,
2013-03-05 14:38:00,58.9,43.7,29.91,West,259,6.0,0.0,57,0.00,,,0.00,WeatherTracker,2013-03-05 22:38:00,
2013-03-05 14:43:00,59.1,43.4,29.91,NW,310,11.0,0.0,56,0.00,,,0.00,WeatherTracker,2013-03-05 22:43:00,
2013-03-05 14:48:00,59.1,43.4,29.91,SW,234,6.0,0.0,56,0.00,,,0.00,WeatherTracker,2013-03-05 22:48:00,
2013-03-05 14:53:00,59.2,44.0,29.91,WSW,253,7.0,0.0,57,0.00,,,0.00,WeatherTracker,2013-03-05 22:53:00,
2013-03-05 14:58:00,59.5,43.8,29.91,West,263,4.0,0.0,56,0.00,,,0.00,WeatherTracker,2013-03-05 22:58:00,
2013-03-05 15:03:00,59.7,44.0,29.90,SW,221,8.0,0.0,56,0.00,,,0.00,WeatherTracker,2013-03-05 23:03:00,
2013-03-05 15:08:00,59.6,43.4,29.90,West,267,11.0,0.0,55,0.00,,,0.00,WeatherTracker,2013-03-05 23:08:00,
2013-03-05 15:13:00,59.3,43.6,29.90,SW,225,9.0,0.0,56,0.00,,,0.00,WeatherTracker,2013-03-05 23:13:00,
2013-03-05 15:18:00,59.2,43.5,29.90,West,271,6.0,0.0,56,0.00,,,0.00,WeatherTracker,2013-03-05 23:18:00,
2013-03-05 15:23:00,59.0,43.8,29.90,WSW,253,9.0,0.0,57,0.00,,,0.00,WeatherTracker,2013-03-05 23:23:00,
2013-03-05 15:28:00,58.9,43.7,29.90,WSW,256,4.0,0.0,57,0.00,,,0.00,WeatherTracker,2013-03-05 23:28:00,
2013-03-05 15:33:00,58.6,43.9,29.90,WNW,282,3.0,0.0,58,0.00,,,0.00,WeatherTracker,2013-03-05 23:33:00,
2013-03-05 15:38:00,58.6,43.9,29.90,SSW,211,6.0,0.0,58,0.00,,,0.00,WeatherTracker,2013-03-05 23:38:00,
2013-03-05 15:44:00,58.6,43.4,29.89,WNW,284,6.0,0.0,57,0.00,,,0.00,WeatherTracker,2013-03-05 23:44:00,
2013-03-05 15:49:00,58.5,43.8,29.89,WSW,243,8.0,0.0,58,0.00,,,0.00,WeatherTracker,2013-03-05 23:49:00,
2013-03-05 15:54:00,58.6,43.9,29.89,WSW,240,8.0,0.0,58,0.00,,,0.00,WeatherTracker,2013-03-05 23:54:00,
2013-03-05 15:59:00,58.5,43.8,29.89,WSW,242,8.0,0.0,58,0.00,,,0.00,WeatherTracker,2013-03-05 23:59:00,
2013-03-05 16:04:00,58.4,43.7,29.88,SW,221,4.0,0.0,58,0.00,,,0.00,WeatherTracker,2013-03-06 00:04:00,
2013-03-05 16:09:00,58.5,43.8,29.88,WNW,284,8.0,0.0,58,0.00,,,0.00,WeatherTracker,2013-03-06 00:09:00,
2013-03-05 16:14:00,58.6,43.9,29.88,SSW,199,2.0,0.0,58,0.00,,,0.00,WeatherTracker,2013-03-06 00:14:00,
2013-03-05 16:19:00,58.7,43.0,29.87,SSW,212,1.0,0.0,56,0.00,,,0.00,WeatherTracker,2013-03-06 00:19:00,
2013-03-05 16:24:00,58.6,43.0,29.87,SSW,209,4.0,0.0,56,0.00,,,0.00,WeatherTracker,2013-03-06 00:24:00,
2013-03-05 16:29:00,58.4,42.3,29.86,SSW,213,5.0,0.0,55,0.00,,,0.00,WeatherTracker,2013-03-06 00:29:00,
2013-03-05 16:34:00,58.2,42.6,29.86,WSW,245,2.0,0.0,56,0.00,,,0.00,WeatherTracker,2013-03-06 00:34:00,
2013-03-05 16:39:00,58.1,42.5,29.86,SW,236,0.0,0.0,56,0.00,,,0.00,WeatherTracker,2013-03-06 00:39:00,
2013-03-05 16:44:00,58.0,41.9,29.85,SW,223,3.0,0.0,55,0.00,,,0.00,WeatherTracker,2013-03-06 00:44:00,
2013-03-05 16:49:00,57.9,42.3,29.85,SSW,192,4.0,0.0,56,0.00,,,0.00,WeatherTracker,2013-03-06 00:49:00,
2013-03-05 16:54:00,57.8,42.2,29.85,WSW,241,7.0,0.0,56,0.00,,,0.00,WeatherTracker,2013-03-06 00:54:00,
2013-03-05 16:59:00,57.6,42.5,29.85,SW,221,4.0,0.0,57,0.00,,,0.00,WeatherTracker,2013-03-06 00:59:00,
2013-03-05 17:04:00,57.2,42.1,29.84,West,259,3.0,0.0,57,0.00,,,0.00,WeatherTracker,2013-03-06 01:04:00,
2013-03-05 17:09:00,56.9,42.3,29.84,SW,215,2.0,0.0,58,0.00,,,0.00,WeatherTracker,2013-03-06 01:09:00,
2013-03-05 17:14:00,56.8,42.6,29.84,SSW,199,4.0,0.0,59,0.00,,,0.00,WeatherTracker,2013-03-06 01:14:00,
2013-03-05 17:19:00,56.6,42.9,29.84,SW,214,3.0,0.0,60,0.00,,,0.00,WeatherTracker,2013-03-06 01:19:00,
2013-03-05 17:25:00,56.5,42.8,29.84,SSW,202,6.0,0.0,60,0.00,,,0.00,WeatherTracker,2013-03-06 01:25:00,
2013-03-05 17:30:00,56.3,42.6,29.84,SSW,204,2.0,0.0,60,0.00,,,0.00,WeatherTracker,2013-03-06 01:30:00,
2013-03-05 17:35:00,56.2,42.9,29.84,SSW,198,6.0,0.0,61,0.00,,,0.00,WeatherTracker,2013-03-06 01:35:00,
2013-03-05 17:40:00,56.0,42.7,29.84,SW,228,4.0,0.0,61,0.00,,,0.00,WeatherTracker,2013-03-06 01:40:00,
2013-03-05 17:45:00,55.8,42.6,29.83,SSW,206,6.0,0.0,61,0.00,,,0.00,WeatherTracker,2013-03-06 01:45:00,
2013-03-05 17:50:00,55.5,42.3,29.83,SW,233,7.0,0.0,61,0.00,,,0.00,WeatherTracker,2013-03-06 01:50:00,
2013-03-05 17:55:00,55.2,42.0,29.83,WSW,242,5.0,0.0,61,0.00,,,0.00,WeatherTracker,2013-03-06 01:55:00,
2013-03-05 18:00:00,55.0,41.8,29.83,SSW,194,6.0,0.0,61,0.00,,,0.00,WeatherTracker,2013-03-06 02:00:00,
2013-03-05 18:05:00,54.7,41.9,29.83,SW,221,5.0,0.0,62,0.00,,,0.00,WeatherTracker,2013-03-06 02:05:00,
2013-03-05 18:10:00,54.5,42.2,29.83,SW,226,3.0,0.0,63,0.00,,,0.00,WeatherTracker,2013-03-06 02:10:00,
2013-03-05 18:15:00,54.3,41.6,29.83,SSW,196,5.0,0.0,62,0.00,,,0.00,WeatherTracker,2013-03-06 02:15:00,
2013-03-05 18:20:00,54.1,41.4,29.83,WSW,253,4.0,0.0,62,0.00,,,0.00,WeatherTracker,2013-03-06 02:20:00,
2013-03-05 18:25:00,54.0,41.3,29.82,SW,223,3.0,0.0,62,0.00,,,0.00,WeatherTracker,2013-03-06 02:25:00,
2013-03-05 18:30:00,53.9,41.2,29.82,SSW,209,2.0,0.0,62,0.00,,,0.00,WeatherTracker,2013-03-06 02:30:00,
2013-03-05 18:35:00,53.9,41.6,29.83,SW,221,4.0,0.0,63,0.00,,,0.00,WeatherTracker,2013-03-06 02:35:00,
2013-03-05 18:40:00,53.8,41.5,29.83,South,185,2.0,0.0,63,0.00,,,0.00,WeatherTracker,2013-03-06 02:40:00,
2013-03-05 18:45:00,53.7,41.8,29.82,WSW,240,5.0,0.0,64,0.00,,,0.00,WeatherTracker,2013-03-06 02:45:00,
2013-03-05 18:50:00,53.7,41.8,29.83,WSW,248,7.0,0.0,64,0.00,,,0.00,WeatherTracker,2013-03-06 02:50:00,
2013-03-05 18:55:00,53.6,41.7,29.83,SW,225,3.0,0.0,64,0.00,,,0.00,WeatherTracker,2013-03-06 02:55:00,
2013-03-05 19:00:00,53.5,41.6,29.83,SW,215,7.0,0.0,64,0.00,,,0.00,WeatherTracker,2013-03-06 03:00:00,
2013-03-05 19:06:00,53.5,41.6,29.83,SW,218,3.0,0.0,64,0.00,,,0.00,WeatherTracker,2013-03-06 03:06:00,
2013-03-05 19:11:00,53.4,41.1,29.83,SW,215,4.0,0.0,63,0.00,,,0.00,WeatherTracker,2013-03-06 03:11:00,
2013-03-05 19:16:00,53.4,41.1,29.83,SSW,193,5.0,0.0,63,0.00,,,0.00,WeatherTracker,2013-03-06 03:16:00,
2013-03-05 19:21:00,53.5,41.2,29.82,SSW,209,4.0,0.0,63,0.00,,,0.00,WeatherTracker,2013-03-06 03:21:00,
2013-03-05 19:26:00,53.4,41.5,29.82,SW,220,5.0,0.0,64,0.00,,,0.00,WeatherTracker,2013-03-06 03:26:00,
2013-03-05 19:31:00,53.4,41.5,29.82,SW,234,10.0,0.0,64,0.00,,,0.00,WeatherTracker,2013-03-06 03:31:00,
2013-03-05 19:36:00,53.4,41.5,29.82,South,187,10.0,0.0,64,0.00,,,0.00,WeatherTracker,2013-03-06 03:36:00,
2013-03-05 19:41:00,53.3,41.4,29.82,WSW,239,8.0,0.0,64,0.00,,,0.00,WeatherTracker,2013-03-06 03:41:00,
2013-03-05 19:46:00,53.3,41.8,29.82,SW,224,7.0,0.0,65,0.00,,,0.00,WeatherTracker,2013-03-06 03:46:00,
2013-03-05 19:51:00,53.2,41.7,29.82,WSW,238,1.0,0.0,65,0.00,,,0.00,WeatherTracker,2013-03-06 03:51:00,
2013-03-05 19:56:00,53.1,41.6,29.82,SSW,194,5.0,0.0,65,0.00,,,0.00,WeatherTracker,2013-03-06 03:56:00,
2013-03-05 20:01:00,53.1,41.6,29.82,SW,220,2.0,0.0,65,0.00,,,0.00,WeatherTracker,2013-03-06 04:01:00,
2013-03-05 20:06:00,53.1,42.0,29.82,SSW,207,5.0,0.0,66,0.00,,,0.00,WeatherTracker,2013-03-06 04:06:00,
2013-03-05 20:11:00,53.2,42.1,29.82,SSE,155,6.0,0.0,66,0.00,,,0.00,WeatherTracker,2013-03-06 04:11:00,
2013-03-05 20:16:00,53.2,42.1,29.82,SSW,198,7.0,0.0,66,0.00,,,0.00,WeatherTracker,2013-03-06 04:16:00,
2013-03-05 20:21:00,53.2,42.1,29.82,SSW,197,7.0,0.0,66,0.00,,,0.00,WeatherTracker,2013-03-06 04:21:00,
2013-03-05 20:26:00,53.2,42.1,29.81,SSE,157,2.0,0.0,66,0.00,,,0.00,WeatherTracker,2013-03-06 04:26:00,
2013-03-05 20:31:00,53.2,42.1,29.82,SE,141,4.0,0.0,66,0.00,,,0.00,WeatherTracker,2013-03-06 04:31:00,
2013-03-05 20:36:00,53.1,42.0,29.81,SSE,163,3.0,0.0,66,0.00,,,0.00,WeatherTracker,2013-03-06 04:36:00,
2013-03-05 20:41:00,53.0,41.9,29.82,South,184,4.0,0.0,66,0.00,,,0.00,WeatherTracker,2013-03-06 04:41:00,
2013-03-05 20:46:00,52.9,42.2,29.81,South,186,2.0,0.0,67,0.00,,,0.00,WeatherTracker,2013-03-06 04:46:00,
2013-03-05 20:52:00,52.9,42.6,29.81,SSE,148,2.0,0.0,68,0.00,,,0.00,WeatherTracker,2013-03-06 04:52:00,
2013-03-05 20:57:00,52.8,43.3,29.82,South,186,4.0,0.0,70,0.00,,,0.00,WeatherTracker,2013-03-06 04:57:00,
2013-03-05 21:00:00,52.7,43.6,29.81,SSE,162,7.0,0.0,71,0.00,,,0.00,WeatherTracker,2013-03-06 05:00:00,
2013-03-05 21:01:00,52.7,43.6,29.82,South,180,4.0,0.0,71,0.00,,,0.00,WeatherTracker,2013-03-06 05:01:00,
2013-03-05 21:06:00,52.5,44.5,29.82,South,181,3.0,0.0,74,0.00,,,0.00,WeatherTracker,2013-03-06 05:06:00,
2013-03-05 21:11:00,52.0,44.7,29.81,SSW,198,5.0,0.0,76,0.01,,,0.01,WeatherTracker,2013-03-06 05:11:00,
2013-03-05 21:16:00,51.6,44.6,29.82,South,171,5.0,0.0,77,0.01,,,0.01,WeatherTracker,2013-03-06 05:16:00,
2013-03-05 21:21:00,51.2,44.6,29.81,South,170,6.0,0.0,78,0.01,,,0.01,WeatherTracker,2013-03-06 05:21:00,
2013-03-05 21:26:00,50.9,44.6,29.81,SSE,153,1.0,0.0,79,0.01,,,0.01,WeatherTracker,2013-03-06 05:26:00,
2013-03-05 21:31:00,50.8,44.9,29.81,SSE,163,4.0,0.0,80,0.01,,,0.01,WeatherTracker,2013-03-06 05:31:00,
2013-03-05 21:36:00,50.6,44.7,29.81,South,182,4.0,0.0,80,0.01,,,0.01,WeatherTracker,2013-03-06 05:36:00,
2013-03-05 21:41:00,50.4,44.5,29.80,SSE,162,2.0,0.0,80,0.01,,,0.01,WeatherTracker,2013-03-06 05:41:00,
2013-03-05 21:46:00,50.3,44.4,29.80,SSE,152,3.0,0.0,80,0.02,,,0.02,WeatherTracker,2013-03-06 05:46:00,
2013-03-05 21:51:00,50.2,44.6,29.80,SSE,154,0.0,0.0,81,0.02,,,0.02,WeatherTracker,2013-03-06 05:51:00,
2013-03-05 21:56:00,50.1,44.8,29.81,South,175,4.0,0.0,82,0.02,,,0.02,WeatherTracker,2013-03-06 05:56:00,
2013-03-05 22:01:00,50.0,44.7,29.81,South,183,4.0,0.0,82,0.02,,,0.02,WeatherTracker,2013-03-06 06:01:00,
2013-03-05 22:06:00,49.9,45.3,29.81,South,171,2.0,0.0,84,0.01,,,0.02,WeatherTracker,2013-03-06 06:06:00,
2013-03-05 22:11:00,49.8,45.2,29.81,South,184,2.0,0.0,84,0.02,,,0.03,WeatherTracker,2013-03-06 06:11:00,
2013-03-05 22:16:00,49.7,45.1,29.80,SSE,168,2.0,0.0,84,0.02,,,0.03,WeatherTracker,2013-03-06 06:16:00,
2013-03-05 22:21:00,49.6,45.3,29.80,SSE,153,2.0,0.0,85,0.02,,,0.03,WeatherTracker,2013-03-06 06:21:00,
2013-03-05 22:26:00,49.5,45.2,29.79,SE,142,1.0,0.0,85,0.03,,,0.04,WeatherTracker,2013-03-06 06:26:00,
2013-03-05 22:31:00,49.4,45.4,29.79,SW,215,4.0,0.0,86,0.03,,,0.04,WeatherTracker,2013-03-06 06:31:00,
2013-03-05 22:36:00,49.3,45.3,29.79,SSE,167,1.0,0.0,86,0.03,,,0.04,WeatherTracker,2013-03-06 06:36:00,
2013-03-05 22:41:00,49.3,45.3,29.79,South,175,3.0,0.0,86,0.03,,,0.04,WeatherTracker,2013-03-06 06:41:00,
2013-03-05 22:46:00,49.3,45.6,29.79,SSW,212,3.0,0.0,87,0.02,,,0.04,WeatherTracker,2013-03-06 06:46:00,
2013-03-05 22:52:00,49.3,45.6,29.79,SSW,197,4.0,0.0,87,0.02,,,0.04,WeatherTracker,2013-03-06 06:52:00,
2013-03-05 22:57:00,49.3,45.6,29.80,South,173,3.0,0.0,87,0.02,,,0.04,WeatherTracker,2013-03-06 06:57:00,
2013-03-05 23:02:00,49.3,45.6,29.79,SSW,211,1.0,0.0,87,0.02,,,0.04,WeatherTracker,2013-03-06 07:02:00,
2013-03-05 23:07:00,49.3,45.9,29.79,SE,139,4.0,0.0,88,0.02,,,0.04,WeatherTracker,2013-03-06 07:07:00,
2013-03-05 23:12:00,49.4,46.0,29.79,South,182,7.0,0.0,88,0.01,,,0.04,WeatherTracker,2013-03-06 07:12:00,
2013-03-05 23:17:00,49.5,45.5,29.79,SSE,167,8.0,0.0,86,0.01,,,0.04,WeatherTracker,2013-03-06 07:17:00,
2013-03-05 23:22:00,49.7,45.7,29.79,SSE,161,7.0,0.0,86,0.01,,,0.04,WeatherTracker,2013-03-06 07:22:00,
2013-03-05 23:27:00,49.8,45.5,29.79,South,180,13.0,0.0,85,0.00,,,0.04,WeatherTracker,2013-03-06 07:27:00,
2013-03-05 23:32:00,49.9,45.6,29.79,SE,144,9.0,0.0,85,0.00,,,0.04,WeatherTracker,2013-03-06 07:32:00,
2013-03-05 23:37:00,49.9,45.6,29.79,South,190,5.0,0.0,85,0.00,,,0.04,WeatherTracker,2013-03-06 07:37:00,
2013-03-05 23:42:00,50.0,45.4,29.79,SE,143,5.0,0.0,84,0.00,,,0.04,WeatherTracker,2013-03-06 07:42:00,
2013-03-05 23:47:00,50.1,45.5,29.79,SW,234,5.0,0.0,84,0.00,,,0.04,WeatherTracker,2013-03-06 07:47:00,
2013-03-05 23:52:00,50.4,45.4,29.79,SSW,206,5.0,0.0,83,0.00,,,0.04,WeatherTracker,2013-03-06 07:52:00,
2013-03-05 23:57:00,50.6,45.6,29.79,SSW,213,5.0,0.0,83,0.00,,,0.04,WeatherTracker,2013-03-06 07:57:00,